Location: Guayaquil
(2.1667°S, 79.9000°W)
Time: 10:38:51
(UTC-05:00)

Envisat - Pass Details

Date: 10 August 2020
Orbit: 764 x 766 km, 98.1° (Epoch: 23 September)

Event Time Altitude Azimuth Distance (km) Brightness Sun altitude
Rises 05:31:18 0° 29° (NNE) 3,214 6.9 -13.5°
Reaches altitude 10° 05:33:47 10° 38° (NE) 2,291 6.3 -12.9°
Maximum altitude 05:38:19 34° 103° (ESE) 1,236 4.7 -11.8°
Drops below altitude 10° 05:42:53 10° 167° (SSE) 2,300 5.5 -10.7°
Sets 05:45:22 0° 176° (S) 3,229 6.1 -10.1°
